Location: Colossi of Memnon
(25.7167°N, 32.6167°E)
Time: 11:25:23
(UTC+00:00)

CZ-4B R/B - Pass Details

Date: 05 March 2021
Orbit: 486 x 650 km, 97.9° (Epoch: 21 April)

Event Time Altitude Azimuth Distance (km) Brightness Sun altitude
Rises 02:52:58 0° 15° (NNE) 2,964 6.8 -17.9°
Reaches altitude 10° 02:55:12 10° 18° (NNE) 2,055 6.0 -17.4°
Maximum altitude 02:59:41 68° 101° (E) 697 3.5 -16.4°
Drops below altitude 10° 03:04:07 10° 184° (S) 2,024 5.6 -15.4°
Sets 03:06:18 0° 187° (S) 2,915 6.4 -14.9°
